Simultaneous Nadir Overpasses (SNOs) Predictions

Prediction of SNOs between GOES-14 and AQUA Satellite Orbit:

Table of predicted SNOs for the next 14.0 days since TLE Epoch: 8/17/2024
Index Date Time (GOES-14) GOES-14 Lat,Lon AQUA Lat,Lon Distance(km) Time Diff (sec)
1 08/18/2024 21:17:13 -0.03,-108.33 0.61,-105.27 347.75 80
2 08/19/2024 09:37:12 0.02,-108.39 0.41,-110.11 195.82 80
3 08/21/2024 09:17:23 0.02,-108.38 -0.53,-105.92 279.91 80
4 08/21/2024 21:37:29 -0.02,-108.31 -0.54,-110.78 280.90 80
5 08/23/2024 21:22:57 -0.02,-108.30 0.35,-106.57 196.24 80
6 08/24/2024 09:42:54 0.02,-108.36 0.67,-111.41 345.95 80
7 08/26/2024 09:23:01 0.02,-108.35 -0.22,-107.19 131.30 80
8 08/26/2024 21:43:05 -0.01,-108.27 -0.84,-112.05 430.01 80
9 08/28/2024 21:28:30 -0.00,-108.25 0.12,-107.84 48.12 80
10 08/29/2024 09:48:26 -0.00,-108.32 0.96,-112.65 493.11 80
